Погода в Усть-Куйге

Россия / Республика Саха (Якутия)     70°00′15″N   135°32′55″E
темп.,
°C
ветер,
м/с
пор.,
м/с
влажн.,
%
обл.,
%
осадки,
мм/ч
давл.,
гПа
погр.,
м
3 марта, ср
ср301:00−38с119779 0.0 102719
04:00−38с229790 0.0 102719
07:00−39с229899 0.0 102618
10:00−38с229699 0.0 102520
13:00−36с339499 0.0 1024175
16:00−37с2396100 0.0 102368
19:00−39с3397100 0.0 102321
22:00−39ссз3398100 0.1 102221
4 марта, чт
чт401:00−35ссз2398100 0.1 102289
04:00−33ссз2298100 0.2 102057
07:00−32ссз2297100 0.1 102041
10:00−30ссз3796100 0.3 1019267
13:00−27ссз4690100 0.1 1020491
16:00−26ссз3791100 0.1 1020539
19:00−27сз2295100 0.1 102120
22:00−27сз1297100 0.1 102222
5 марта, пт
пт501:00−29сз2296100 0.1 102320
04:00−31ссз2294100 0.1 102422
07:00−32ссз2295100 0.0 102540
10:00−32ссз2294100 0.1 1025122
13:00−31ссз2290100 0.0 1026243
16:00−31ссз2292100 0.1 1026189
19:00−33ссз2296100 0.0 102824
22:00−33сз1296100 0.1 102820
6 марта, сб
сб601:00−33ссз2295100 0.0 102821
04:00−33сз1195100 0.1 102923
07:00−32сз1195100 0.0 102920
10:00−31зюз0094100 0.1 102978
13:00−30юз1190100 0.0 1028198
16:00−29ю1189100 0.0 1028197
19:00−31ююз119697 0.0 102819
22:00−33ююз119898 0.0 102719
7 марта, вс
вс701:00−33ю1299100 0.0 102619
04:00−32ю2297100 0.0 102620
07:00−33ююз239698 0.0 102520
10:00−32ю239794 0.0 102435
13:00−29ю339398 0.0 1023188
16:00−29ююз339499 0.0 1022163
19:00−32ююз239886 0.0 102219
22:00−33ююз3310044 0.0 102119